Year,Month,Day,Hour,Minute,Value (Times are PST for temperature in C)
2019,03,27,00,00,2.10
2019,03,27,00,01,2.00
2019,03,27,00,02,2.00
2019,03,27,00,03,2.00
2019,03,27,00,04,2.00
2019,03,27,00,05,2.00
2019,03,27,00,06,2.00
2019,03,27,00,07,2.00
2019,03,27,00,08,2.10
2019,03,27,00,09,2.10
2019,03,27,00,10,2.10
2019,03,27,00,11,2.10
2019,03,27,00,12,2.00
2019,03,27,00,13,2.00
2019,03,27,00,14,2.00
2019,03,27,00,15,2.00
2019,03,27,00,16,2.00
2019,03,27,00,17,2.00
2019,03,27,00,18,2.00
2019,03,27,00,19,1.90
2019,03,27,00,20,1.90
2019,03,27,00,21,1.90
2019,03,27,00,22,1.90
2019,03,27,00,23,2.00
2019,03,27,00,24,2.00
2019,03,27,00,25,2.00
2019,03,27,00,26,2.00
2019,03,27,00,27,2.00
2019,03,27,00,28,2.00
2019,03,27,00,29,2.10
2019,03,27,00,30,2.10
2019,03,27,00,31,2.10
2019,03,27,00,32,2.10
2019,03,27,00,33,2.10
2019,03,27,00,34,2.10
2019,03,27,00,35,2.10
2019,03,27,00,36,2.10
2019,03,27,00,37,2.00
2019,03,27,00,38,2.00
2019,03,27,00,39,1.90
2019,03,27,00,40,1.90
2019,03,27,00,41,1.90
2019,03,27,00,42,1.90
2019,03,27,00,43,1.90
2019,03,27,00,44,1.80
2019,03,27,00,45,1.80
2019,03,27,00,46,1.80
2019,03,27,00,47,1.70
2019,03,27,00,48,1.60
2019,03,27,00,49,1.50
2019,03,27,00,50,1.50
2019,03,27,00,51,1.40
2019,03,27,00,52,1.30
2019,03,27,00,53,1.30
2019,03,27,00,54,1.30
2019,03,27,00,55,1.30
2019,03,27,00,56,1.30
2019,03,27,00,57,1.30
2019,03,27,00,58,1.30
2019,03,27,00,59,1.30
2019,03,27,01,00,1.30
2019,03,27,01,01,1.30
2019,03,27,01,02,1.20
2019,03,27,01,03,1.20
2019,03,27,01,04,1.20
2019,03,27,01,05,1.20
2019,03,27,01,06,1.10
2019,03,27,01,07,1.10
2019,03,27,01,08,1.10
2019,03,27,01,09,1.10
2019,03,27,01,10,1.10
2019,03,27,01,11,1.10
2019,03,27,01,12,1.10
2019,03,27,01,13,1.10
2019,03,27,01,14,1.20
2019,03,27,01,15,1.20
2019,03,27,01,16,1.20
2019,03,27,01,17,1.20
2019,03,27,01,18,1.20
2019,03,27,01,19,1.20
2019,03,27,01,20,1.20
2019,03,27,01,21,1.20
2019,03,27,01,22,1.20
2019,03,27,01,23,1.20
2019,03,27,01,24,1.20
2019,03,27,01,25,1.20
2019,03,27,01,26,1.20
2019,03,27,01,27,1.10
2019,03,27,01,28,1.10
2019,03,27,01,29,1.10
2019,03,27,01,30,1.10
2019,03,27,01,31,1.00
2019,03,27,01,32,1.00
2019,03,27,01,33,0.90
2019,03,27,01,34,0.90
2019,03,27,01,35,0.90
2019,03,27,01,36,0.90
2019,03,27,01,37,0.90
2019,03,27,01,38,0.90
2019,03,27,01,39,0.90
2019,03,27,01,40,1.00
2019,03,27,01,41,1.00
2019,03,27,01,42,1.00
2019,03,27,01,43,1.00
2019,03,27,01,44,0.90
2019,03,27,01,45,0.90
2019,03,27,01,46,0.90
2019,03,27,01,47,0.90
2019,03,27,01,48,0.90
2019,03,27,01,49,0.90
2019,03,27,01,50,0.80
2019,03,27,01,51,0.80
2019,03,27,01,52,0.80
2019,03,27,01,53,0.80
2019,03,27,01,54,0.70
2019,03,27,01,55,0.70
2019,03,27,01,56,0.70
2019,03,27,01,57,0.70
2019,03,27,01,58,0.70
2019,03,27,01,59,0.70
2019,03,27,02,00,0.70
2019,03,27,02,01,0.70
2019,03,27,02,02,0.70
2019,03,27,02,03,0.70
2019,03,27,02,04,0.70
2019,03,27,02,05,0.60
2019,03,27,02,06,0.60
2019,03,27,02,07,0.60
2019,03,27,02,08,0.60
2019,03,27,02,09,0.60
2019,03,27,02,10,0.60
2019,03,27,02,11,0.60
2019,03,27,02,12,0.60
2019,03,27,02,13,0.70
2019,03,27,02,14,0.70
2019,03,27,02,15,0.70
2019,03,27,02,16,0.70
2019,03,27,02,17,0.80
2019,03,27,02,18,0.80
2019,03,27,02,19,0.80
2019,03,27,02,20,0.80
2019,03,27,02,21,0.90
2019,03,27,02,22,0.90
2019,03,27,02,23,0.90
2019,03,27,02,24,0.90
2019,03,27,02,25,0.80
2019,03,27,02,26,0.80
2019,03,27,02,27,0.80
2019,03,27,02,28,0.80
2019,03,27,02,29,0.70
2019,03,27,02,30,0.70
2019,03,27,02,31,0.70
2019,03,27,02,32,0.60
2019,03,27,02,33,0.60
2019,03,27,02,34,0.60
2019,03,27,02,35,0.60
2019,03,27,02,36,0.60
2019,03,27,02,37,0.60
2019,03,27,02,38,0.50
2019,03,27,02,39,0.50
2019,03,27,02,40,0.40
2019,03,27,02,41,0.40
2019,03,27,02,42,0.40
2019,03,27,02,43,0.30
2019,03,27,02,44,0.30
2019,03,27,02,45,0.30
2019,03,27,02,46,0.30
2019,03,27,02,47,0.30
2019,03,27,02,48,0.40
2019,03,27,02,49,0.50
2019,03,27,02,50,0.50
2019,03,27,02,51,0.60
2019,03,27,02,52,0.70
2019,03,27,02,53,0.80
2019,03,27,02,54,0.90
2019,03,27,02,55,0.90
2019,03,27,02,56,0.90
2019,03,27,02,57,0.90
2019,03,27,02,58,0.80
2019,03,27,02,59,0.80
2019,03,27,03,00,0.80
2019,03,27,03,01,0.80
2019,03,27,03,02,0.70
2019,03,27,03,03,0.70
2019,03,27,03,04,0.60
2019,03,27,03,05,0.60
2019,03,27,03,06,0.60
2019,03,27,03,07,0.50
2019,03,27,03,08,0.40
2019,03,27,03,09,0.40
2019,03,27,03,10,0.40
2019,03,27,03,11,0.30
2019,03,27,03,12,0.30
2019,03,27,03,13,0.40
2019,03,27,03,14,0.40
2019,03,27,03,15,0.40
2019,03,27,03,16,0.40
2019,03,27,03,17,0.40
2019,03,27,03,18,0.40
2019,03,27,03,19,0.40
2019,03,27,03,20,0.40
2019,03,27,03,21,0.30
2019,03,27,03,22,0.30
2019,03,27,03,23,0.30
2019,03,27,03,24,0.30
2019,03,27,03,25,0.30
2019,03,27,03,26,0.30
2019,03,27,03,27,0.30
2019,03,27,03,28,0.30
2019,03,27,03,29,0.30
2019,03,27,03,30,0.20
2019,03,27,03,31,0.20
2019,03,27,03,32,0.20
2019,03,27,03,33,0.10
2019,03,27,03,34,0.10
2019,03,27,03,35,0.10
2019,03,27,03,36,0.10
2019,03,27,03,37,0.10
2019,03,27,03,38,0.00
2019,03,27,03,39,0.00
2019,03,27,03,40,0.00
2019,03,27,03,41,0.00
2019,03,27,03,42,0.00
2019,03,27,03,43,0.00
2019,03,27,03,44,0.00
2019,03,27,03,45,0.00
2019,03,27,03,46,0.00
2019,03,27,03,47,0.00
2019,03,27,03,48,0.10
2019,03,27,03,49,0.20
2019,03,27,03,50,0.30
2019,03,27,03,51,0.40
2019,03,27,03,52,0.50
2019,03,27,03,53,0.60
2019,03,27,03,54,0.70
2019,03,27,03,55,0.70
2019,03,27,03,56,0.80
2019,03,27,03,57,0.90
2019,03,27,03,58,1.00
2019,03,27,03,59,1.10
2019,03,27,04,00,1.10
2019,03,27,04,01,1.10
2019,03,27,04,02,1.10
2019,03,27,04,03,1.00
2019,03,27,04,04,1.00
2019,03,27,04,05,0.90
2019,03,27,04,06,0.90
2019,03,27,04,07,0.80
2019,03,27,04,08,0.80
2019,03,27,04,09,0.80
2019,03,27,04,10,0.70
2019,03,27,04,11,0.70
2019,03,27,04,12,0.70
2019,03,27,04,13,0.70
2019,03,27,04,14,0.80
2019,03,27,04,15,0.80
2019,03,27,04,16,0.80
2019,03,27,04,17,0.70
2019,03,27,04,18,0.70
2019,03,27,04,19,0.70
2019,03,27,04,20,0.70
2019,03,27,04,21,0.70
2019,03,27,04,22,0.60
2019,03,27,04,23,0.60
2019,03,27,04,24,0.60
2019,03,27,04,25,0.60
2019,03,27,04,26,0.60
2019,03,27,04,27,0.60
2019,03,27,04,28,0.60
2019,03,27,04,29,0.60
2019,03,27,04,30,0.60
2019,03,27,04,31,0.60
2019,03,27,04,32,0.60
2019,03,27,04,33,0.50
2019,03,27,04,34,0.50
2019,03,27,04,35,0.50
2019,03,27,04,36,0.50
2019,03,27,04,37,0.40
2019,03,27,04,38,0.40
2019,03,27,04,39,0.40
2019,03,27,04,40,0.40
2019,03,27,04,41,0.30
2019,03,27,04,42,0.30
2019,03,27,04,43,0.30
2019,03,27,04,44,0.30
2019,03,27,04,45,0.20
2019,03,27,04,46,0.20
2019,03,27,04,47,0.20
2019,03,27,04,48,0.20
2019,03,27,04,49,0.20
2019,03,27,04,50,0.20
2019,03,27,04,51,0.20
2019,03,27,04,52,0.20
2019,03,27,04,53,0.20
2019,03,27,04,54,0.20
2019,03,27,04,55,0.20
2019,03,27,04,56,0.20
2019,03,27,04,57,0.20
2019,03,27,04,58,0.20
2019,03,27,04,59,0.10
2019,03,27,05,00,0.10
2019,03,27,05,01,0.10
2019,03,27,05,02,0.10
2019,03,27,05,03,0.10
2019,03,27,05,04,0.10
2019,03,27,05,05,0.10
2019,03,27,05,06,0.10
2019,03,27,05,07,0.10
2019,03,27,05,08,0.10
2019,03,27,05,09,0.10
2019,03,27,05,10,0.10
2019,03,27,05,11,0.10
2019,03,27,05,12,0.10
2019,03,27,05,13,0.00
2019,03,27,05,14,0.00
2019,03,27,05,15,0.10
2019,03,27,05,16,0.10
2019,03,27,05,17,0.10
2019,03,27,05,18,0.10
2019,03,27,05,19,0.10
2019,03,27,05,20,0.10
2019,03,27,05,21,0.30
2019,03,27,05,22,0.30
2019,03,27,05,23,0.40
2019,03,27,05,24,0.50
2019,03,27,05,25,0.50
2019,03,27,05,26,0.60
2019,03,27,05,27,0.60
2019,03,27,05,28,0.60
2019,03,27,05,29,0.60
2019,03,27,05,30,0.60
2019,03,27,05,31,0.70
2019,03,27,05,32,0.70
2019,03,27,05,33,0.80
2019,03,27,05,34,0.90
2019,03,27,05,35,1.20
2019,03,27,05,36,1.40
2019,03,27,05,37,1.70
2019,03,27,05,38,1.80
2019,03,27,05,39,1.80
2019,03,27,05,40,1.90
2019,03,27,05,41,2.00
2019,03,27,05,42,2.10
2019,03,27,05,43,2.10
2019,03,27,05,44,2.00
2019,03,27,05,45,2.00
2019,03,27,05,46,1.90
2019,03,27,05,47,1.90
2019,03,27,05,48,1.80
2019,03,27,05,49,1.90
2019,03,27,05,50,1.90
2019,03,27,05,51,2.00
2019,03,27,05,52,2.20
2019,03,27,05,53,2.40
2019,03,27,05,54,2.50
2019,03,27,05,55,2.70
2019,03,27,05,56,2.80
2019,03,27,05,57,3.00
2019,03,27,05,58,3.20
2019,03,27,05,59,3.30
2019,03,27,06,00,3.40
2019,03,27,06,01,3.50
2019,03,27,06,02,3.50
2019,03,27,06,03,3.60
2019,03,27,06,04,3.60
2019,03,27,06,05,3.70
2019,03,27,06,06,3.70
2019,03,27,06,07,3.70
2019,03,27,06,08,3.70
2019,03,27,06,09,3.70
2019,03,27,06,10,3.70
2019,03,27,06,11,3.70
2019,03,27,06,12,3.60
2019,03,27,06,13,3.60
2019,03,27,06,14,3.60
2019,03,27,06,15,3.60
2019,03,27,06,16,3.60
2019,03,27,06,17,3.70
2019,03,27,06,18,3.70
2019,03,27,06,19,3.70
2019,03,27,06,20,3.70
2019,03,27,06,21,3.70
2019,03,27,06,22,3.80
2019,03,27,06,23,3.80
2019,03,27,06,24,3.80
2019,03,27,06,25,3.80
2019,03,27,06,26,3.80
2019,03,27,06,27,3.80
2019,03,27,06,28,3.90
2019,03,27,06,29,3.90
2019,03,27,06,30,3.90
2019,03,27,06,31,3.90
2019,03,27,06,32,3.90
2019,03,27,06,33,4.00
2019,03,27,06,34,4.00
2019,03,27,06,35,4.00
2019,03,27,06,36,4.10
2019,03,27,06,37,4.10
2019,03,27,06,38,4.10
2019,03,27,06,39,4.20
2019,03,27,06,40,4.20
2019,03,27,06,41,4.20
2019,03,27,06,42,4.30
2019,03,27,06,43,4.30
2019,03,27,06,44,4.30
2019,03,27,06,45,4.30
2019,03,27,06,46,4.40
2019,03,27,06,47,4.40
2019,03,27,06,48,4.40
2019,03,27,06,49,4.40
2019,03,27,06,50,4.40
2019,03,27,06,51,4.40
2019,03,27,06,52,4.40
2019,03,27,06,53,4.40
2019,03,27,06,54,4.40
2019,03,27,06,55,4.40
2019,03,27,06,56,4.40
2019,03,27,06,57,4.40
2019,03,27,06,58,4.40
2019,03,27,06,59,4.40
2019,03,27,07,00,4.40
2019,03,27,07,01,4.30
2019,03,27,07,02,4.40
2019,03,27,07,03,4.40
2019,03,27,07,04,4.40
2019,03,27,07,05,4.40
2019,03,27,07,06,4.40
2019,03,27,07,07,4.40
2019,03,27,07,08,4.40
2019,03,27,07,09,4.40
2019,03,27,07,10,4.40
2019,03,27,07,11,4.40
2019,03,27,07,12,4.40
2019,03,27,07,13,4.40
2019,03,27,07,14,4.40
2019,03,27,07,15,4.40
2019,03,27,07,16,4.40
2019,03,27,07,17,4.40
2019,03,27,07,18,4.40
2019,03,27,07,19,4.40
2019,03,27,07,20,4.40
2019,03,27,07,21,4.40
2019,03,27,07,22,4.40
2019,03,27,07,23,4.40
2019,03,27,07,24,4.40
2019,03,27,07,25,4.40
2019,03,27,07,26,4.40
2019,03,27,07,27,4.40
2019,03,27,07,28,4.40
2019,03,27,07,29,4.40
2019,03,27,07,30,4.40
2019,03,27,07,31,4.40
2019,03,27,07,32,4.40
2019,03,27,07,33,4.40
2019,03,27,07,34,4.40
2019,03,27,07,35,4.40
2019,03,27,07,36,4.40
2019,03,27,07,37,4.40
2019,03,27,07,38,4.40
2019,03,27,07,39,4.40
2019,03,27,07,40,4.40
2019,03,27,07,41,4.40
2019,03,27,07,42,4.40
2019,03,27,07,43,4.40
2019,03,27,07,44,4.40
2019,03,27,07,45,4.40
2019,03,27,07,46,4.50
2019,03,27,07,47,4.50
2019,03,27,07,48,4.50
2019,03,27,07,49,4.50
2019,03,27,07,50,4.50
2019,03,27,07,51,4.50
2019,03,27,07,52,4.50
2019,03,27,07,53,4.50
2019,03,27,07,54,4.50
2019,03,27,07,55,4.50
2019,03,27,07,56,4.50
2019,03,27,07,57,4.60
2019,03,27,07,58,4.60
2019,03,27,07,59,4.60
2019,03,27,08,00,4.60
2019,03,27,08,01,4.60
2019,03,27,08,02,4.60
2019,03,27,08,03,4.60
2019,03,27,08,04,4.60
2019,03,27,08,05,4.60
2019,03,27,08,06,4.60
2019,03,27,08,07,4.50
2019,03,27,08,08,4.60
2019,03,27,08,09,4.50
2019,03,27,08,10,4.60
2019,03,27,08,11,4.50
2019,03,27,08,12,4.60
2019,03,27,08,13,4.60
2019,03,27,08,14,4.60
2019,03,27,08,15,4.60
2019,03,27,08,16,4.60
2019,03,27,08,17,4.60
2019,03,27,08,18,4.60
2019,03,27,08,19,4.60
2019,03,27,08,20,4.60
2019,03,27,08,21,4.60
2019,03,27,08,22,4.60
2019,03,27,08,23,4.60
2019,03,27,08,24,4.60
2019,03,27,08,25,4.70
2019,03,27,08,26,4.70
2019,03,27,08,27,4.70
2019,03,27,08,28,4.70
2019,03,27,08,29,4.70
2019,03,27,08,30,4.70
2019,03,27,08,31,4.70
2019,03,27,08,32,4.70
2019,03,27,08,33,4.70
2019,03,27,08,34,4.70
2019,03,27,08,35,4.70
2019,03,27,08,36,4.70
2019,03,27,08,37,4.70
2019,03,27,08,38,4.70
2019,03,27,08,39,4.70
2019,03,27,08,40,4.80
2019,03,27,08,41,4.80
2019,03,27,08,42,4.80
2019,03,27,08,43,4.80
2019,03,27,08,44,4.80
2019,03,27,08,45,4.80
2019,03,27,08,46,4.80
2019,03,27,08,47,4.80
2019,03,27,08,48,4.80
2019,03,27,08,49,4.80
2019,03,27,08,50,4.80
2019,03,27,08,51,4.90
2019,03,27,08,52,4.90
2019,03,27,08,53,4.90
2019,03,27,08,54,4.90
2019,03,27,08,55,5.00
2019,03,27,08,56,5.00
2019,03,27,08,57,5.10
2019,03,27,08,58,5.10
2019,03,27,08,59,5.10
2019,03,27,09,00,5.10
2019,03,27,09,01,5.10
2019,03,27,09,02,5.10
2019,03,27,09,03,5.10
2019,03,27,09,04,5.20
2019,03,27,09,05,5.20
2019,03,27,09,06,5.20
2019,03,27,09,07,5.30
2019,03,27,09,08,5.30
2019,03,27,09,09,5.30
2019,03,27,09,10,5.40
2019,03,27,09,11,5.40
2019,03,27,09,12,5.40
2019,03,27,09,13,5.50
2019,03,27,09,14,5.50
2019,03,27,09,15,5.60
2019,03,27,09,16,5.60
2019,03,27,09,17,5.60
2019,03,27,09,18,5.60
2019,03,27,09,19,5.60
2019,03,27,09,20,5.70
2019,03,27,09,21,5.70
2019,03,27,09,22,5.70
2019,03,27,09,23,5.70
2019,03,27,09,24,5.80
2019,03,27,09,25,5.80
2019,03,27,09,26,5.80
2019,03,27,09,27,5.90
2019,03,27,09,28,5.90
2019,03,27,09,29,6.00
2019,03,27,09,30,6.00
2019,03,27,09,31,6.00
2019,03,27,09,32,6.10
2019,03,27,09,33,6.10
2019,03,27,09,34,6.20
2019,03,27,09,35,6.20
2019,03,27,09,36,6.30
2019,03,27,09,37,6.30
2019,03,27,09,38,6.40
2019,03,27,09,39,6.50
2019,03,27,09,40,6.50
2019,03,27,09,41,6.60
2019,03,27,09,42,6.60
2019,03,27,09,43,6.70
2019,03,27,09,44,6.70
2019,03,27,09,45,6.80
2019,03,27,09,46,6.80
2019,03,27,09,47,6.90
2019,03,27,09,48,6.90
2019,03,27,09,49,6.90
2019,03,27,09,50,6.90
2019,03,27,09,51,7.00
2019,03,27,09,52,7.00
2019,03,27,09,53,7.10
2019,03,27,09,54,7.10
2019,03,27,09,55,7.20
2019,03,27,09,56,7.20
2019,03,27,09,57,7.20
2019,03,27,09,58,7.20
2019,03,27,09,59,7.20
2019,03,27,10,00,7.20
2019,03,27,10,01,7.30
2019,03,27,10,02,7.30
2019,03,27,10,03,7.30
2019,03,27,10,04,7.30
2019,03,27,10,05,7.40
2019,03,27,10,06,7.40
2019,03,27,10,07,7.40
2019,03,27,10,08,7.50
2019,03,27,10,09,7.60
2019,03,27,10,10,7.60
2019,03,27,10,11,7.60
2019,03,27,10,12,7.70
2019,03,27,10,13,7.70
2019,03,27,10,14,7.70
2019,03,27,10,15,7.70
2019,03,27,10,16,7.80
2019,03,27,10,17,7.80
2019,03,27,10,18,7.80
2019,03,27,10,19,7.80
2019,03,27,10,20,7.80
2019,03,27,10,21,7.80
2019,03,27,10,22,7.80
2019,03,27,10,23,7.90
2019,03,27,10,24,7.90
2019,03,27,10,25,7.90
2019,03,27,10,26,8.00
2019,03,27,10,27,8.10
2019,03,27,10,28,8.10
2019,03,27,10,29,8.10
2019,03,27,10,30,8.20
2019,03,27,10,31,8.20
2019,03,27,10,32,8.20
2019,03,27,10,33,8.20
2019,03,27,10,34,8.20
2019,03,27,10,35,8.30
2019,03,27,10,36,8.30
2019,03,27,10,37,8.30
2019,03,27,10,38,8.30
2019,03,27,10,39,8.30
2019,03,27,10,40,8.30
2019,03,27,10,41,8.40
2019,03,27,10,42,8.40
2019,03,27,10,43,8.50
2019,03,27,10,44,8.50
2019,03,27,10,45,8.50
2019,03,27,10,46,8.60
2019,03,27,10,47,8.60
2019,03,27,10,48,8.70
2019,03,27,10,49,8.70
2019,03,27,10,50,8.80
2019,03,27,10,51,8.80
2019,03,27,10,52,8.90
2019,03,27,10,53,8.90
2019,03,27,10,54,8.90
2019,03,27,10,55,8.90
2019,03,27,10,56,8.90
2019,03,27,10,57,8.90
2019,03,27,10,58,8.90
2019,03,27,10,59,8.90
2019,03,27,11,00,8.90
2019,03,27,11,01,9.00
2019,03,27,11,02,9.00
2019,03,27,11,03,9.00
2019,03,27,11,04,9.10
2019,03,27,11,05,9.00
2019,03,27,11,06,9.00
2019,03,27,11,07,9.00
2019,03,27,11,08,9.10
2019,03,27,11,09,9.10
2019,03,27,11,10,9.10
2019,03,27,11,11,9.10
2019,03,27,11,12,9.10
2019,03,27,11,13,9.10
2019,03,27,11,14,9.10
2019,03,27,11,15,9.10
2019,03,27,11,16,9.10
2019,03,27,11,17,9.10
2019,03,27,11,18,9.10
2019,03,27,11,19,9.20
2019,03,27,11,20,9.20
2019,03,27,11,21,9.20
2019,03,27,11,22,9.20
2019,03,27,11,23,9.30
2019,03,27,11,24,9.40
2019,03,27,11,25,9.40
2019,03,27,11,26,9.30
2019,03,27,11,27,9.30
2019,03,27,11,28,9.30
2019,03,27,11,29,9.30
2019,03,27,11,30,9.30
2019,03,27,11,31,9.40
2019,03,27,11,32,9.40
2019,03,27,11,33,9.40
2019,03,27,11,34,9.40
2019,03,27,11,35,9.30
2019,03,27,11,36,9.30
2019,03,27,11,37,9.30
2019,03,27,11,38,9.20
2019,03,27,11,39,9.20
2019,03,27,11,40,9.10
2019,03,27,11,41,9.10
2019,03,27,11,42,9.20
2019,03,27,11,43,9.20
2019,03,27,11,44,9.30
2019,03,27,11,45,9.30
2019,03,27,11,46,9.30
2019,03,27,11,47,9.30
2019,03,27,11,48,9.20
2019,03,27,11,49,9.20
2019,03,27,11,50,9.20
2019,03,27,11,51,9.20
2019,03,27,11,52,9.20
2019,03,27,11,53,9.20
2019,03,27,11,54,9.30
2019,03,27,11,55,9.30
2019,03,27,11,56,9.40
2019,03,27,11,57,9.50
2019,03,27,11,58,9.60
2019,03,27,11,59,9.70
2019,03,27,12,00,9.80
2019,03,27,12,01,9.80
2019,03,27,12,02,9.80
2019,03,27,12,03,9.80
2019,03,27,12,04,9.80
2019,03,27,12,05,9.80
2019,03,27,12,06,9.80
2019,03,27,12,07,9.90
2019,03,27,12,08,10.00
2019,03,27,12,09,10.00
2019,03,27,12,10,10.00
2019,03,27,12,11,10.00
2019,03,27,12,12,10.10
2019,03,27,12,13,10.20
2019,03,27,12,14,10.30
2019,03,27,12,15,10.30
2019,03,27,12,16,10.40
2019,03,27,12,17,10.40
2019,03,27,12,18,10.40
2019,03,27,12,19,10.40
2019,03,27,12,20,10.40
2019,03,27,12,21,10.30
2019,03,27,12,22,10.30
2019,03,27,12,23,10.30
2019,03,27,12,24,10.30
2019,03,27,12,25,10.40
2019,03,27,12,26,10.40
2019,03,27,12,27,10.40
2019,03,27,12,28,10.50
2019,03,27,12,29,10.60
2019,03,27,12,30,10.50
2019,03,27,12,31,10.50
2019,03,27,12,32,10.50
2019,03,27,12,33,10.50
2019,03,27,12,34,10.50
2019,03,27,12,35,10.40
2019,03,27,12,36,10.40
2019,03,27,12,37,10.30
2019,03,27,12,38,10.30
2019,03,27,12,39,10.40
2019,03,27,12,40,10.40
2019,03,27,12,41,10.30
2019,03,27,12,42,10.30
2019,03,27,12,43,10.30
2019,03,27,12,44,10.20
2019,03,27,12,45,10.20
2019,03,27,12,46,10.10
2019,03,27,12,47,10.10
2019,03,27,12,48,10.20
2019,03,27,12,49,10.30
2019,03,27,12,50,10.40
2019,03,27,12,51,10.40
2019,03,27,12,52,10.30
2019,03,27,12,53,10.30
2019,03,27,12,54,10.30
2019,03,27,12,55,10.30
2019,03,27,12,56,10.30
2019,03,27,12,57,10.30
2019,03,27,12,58,10.40
2019,03,27,12,59,10.40
2019,03,27,13,00,10.40
2019,03,27,13,01,10.50
2019,03,27,13,02,10.50
2019,03,27,13,03,10.50
2019,03,27,13,04,10.50
2019,03,27,13,05,10.60
2019,03,27,13,06,10.70
2019,03,27,13,07,10.70
2019,03,27,13,08,10.90
2019,03,27,13,09,10.90
2019,03,27,13,10,10.90
2019,03,27,13,11,10.80
2019,03,27,13,12,10.80
2019,03,27,13,13,10.80
2019,03,27,13,14,10.80
2019,03,27,13,15,10.80
2019,03,27,13,16,10.80
2019,03,27,13,17,10.80
2019,03,27,13,18,10.80
2019,03,27,13,19,10.80
2019,03,27,13,20,10.90
2019,03,27,13,21,10.90
2019,03,27,13,22,10.90
2019,03,27,13,23,10.90
2019,03,27,13,24,10.90
2019,03,27,13,25,10.90
2019,03,27,13,26,10.90
2019,03,27,13,27,10.90
2019,03,27,13,28,10.90
2019,03,27,13,29,10.90
2019,03,27,13,30,10.90
2019,03,27,13,31,11.00
2019,03,27,13,32,11.00
2019,03,27,13,33,11.00
2019,03,27,13,34,11.00
2019,03,27,13,35,11.00
2019,03,27,13,36,11.00
2019,03,27,13,37,11.00
2019,03,27,13,38,11.00
2019,03,27,13,39,11.00
2019,03,27,13,40,10.90
2019,03,27,13,41,10.80
2019,03,27,13,42,10.90
2019,03,27,13,43,10.90
2019,03,27,13,44,10.90
2019,03,27,13,45,11.00
2019,03,27,13,46,11.10
2019,03,27,13,47,11.10
2019,03,27,13,48,11.20
2019,03,27,13,49,11.20
2019,03,27,13,50,11.30
2019,03,27,13,51,11.30
2019,03,27,13,52,11.40
2019,03,27,13,53,11.40
2019,03,27,13,54,11.40
2019,03,27,13,55,11.50
2019,03,27,13,56,11.60
2019,03,27,13,57,11.70
2019,03,27,13,58,11.70
2019,03,27,13,59,11.80
2019,03,27,14,00,11.80
2019,03,27,14,01,11.80
2019,03,27,14,02,11.80
2019,03,27,14,03,11.80
2019,03,27,14,04,11.70
2019,03,27,14,05,11.60
2019,03,27,14,06,11.60
2019,03,27,14,07,11.50
2019,03,27,14,08,11.40
2019,03,27,14,09,11.40
2019,03,27,14,10,11.40
2019,03,27,14,11,11.50
2019,03,27,14,12,11.50
2019,03,27,14,13,11.50
2019,03,27,14,14,11.50
2019,03,27,14,15,11.50
2019,03,27,14,16,11.60
2019,03,27,14,17,11.60
2019,03,27,14,18,11.60
2019,03,27,14,19,11.60
2019,03,27,14,20,11.60
2019,03,27,14,21,11.60
2019,03,27,14,22,11.60
2019,03,27,14,23,11.60
2019,03,27,14,24,11.60
2019,03,27,14,25,11.60
2019,03,27,14,26,11.60
2019,03,27,14,27,11.60
2019,03,27,14,28,11.70
2019,03,27,14,29,11.70
2019,03,27,14,30,11.60
2019,03,27,14,31,11.60
2019,03,27,14,32,11.60
2019,03,27,14,33,11.60
2019,03,27,14,34,11.70
2019,03,27,14,35,11.70
2019,03,27,14,36,11.70
2019,03,27,14,37,11.70
2019,03,27,14,38,11.70
2019,03,27,14,39,11.70
2019,03,27,14,40,11.70
2019,03,27,14,41,11.70
2019,03,27,14,42,11.70
2019,03,27,14,43,11.70
2019,03,27,14,44,11.80
2019,03,27,14,45,11.90
2019,03,27,14,46,11.90
2019,03,27,14,47,11.90
2019,03,27,14,48,12.00
2019,03,27,14,49,12.10
2019,03,27,14,50,12.10
2019,03,27,14,51,12.10
2019,03,27,14,52,12.20
2019,03,27,14,53,12.20
2019,03,27,14,54,12.30
2019,03,27,14,55,12.30
2019,03,27,14,56,12.30
2019,03,27,14,57,12.30
2019,03,27,14,58,12.30
2019,03,27,14,59,12.40
2019,03,27,15,00,12.40
2019,03,27,15,01,12.50
2019,03,27,15,02,12.50
2019,03,27,15,03,12.50
2019,03,27,15,04,12.50
2019,03,27,15,05,12.50
2019,03,27,15,06,12.50
2019,03,27,15,07,12.60
2019,03,27,15,08,12.60
2019,03,27,15,09,12.70
2019,03,27,15,10,12.70
2019,03,27,15,11,12.80
2019,03,27,15,12,12.80
2019,03,27,15,13,12.80
2019,03,27,15,14,12.80
2019,03,27,15,15,12.90
2019,03,27,15,16,12.90
2019,03,27,15,17,12.90
2019,03,27,15,18,12.80
2019,03,27,15,19,12.90
2019,03,27,15,20,12.90
2019,03,27,15,21,12.90
2019,03,27,15,22,13.00
2019,03,27,15,23,13.00
2019,03,27,15,24,13.00
2019,03,27,15,25,13.00
2019,03,27,15,26,13.10
2019,03,27,15,27,13.10
2019,03,27,15,28,13.10
2019,03,27,15,29,13.10
2019,03,27,15,30,13.20
2019,03,27,15,31,13.20
2019,03,27,15,32,13.30
2019,03,27,15,33,13.40
2019,03,27,15,34,13.40
2019,03,27,15,35,13.40
2019,03,27,15,36,13.40
2019,03,27,15,37,13.30
2019,03,27,15,38,13.30
2019,03,27,15,39,13.30
2019,03,27,15,40,13.30
2019,03,27,15,41,13.30
2019,03,27,15,42,13.20
2019,03,27,15,43,13.20
2019,03,27,15,44,13.20
2019,03,27,15,45,13.20
2019,03,27,15,46,13.20
2019,03,27,15,47,13.20
2019,03,27,15,48,13.10
2019,03,27,15,49,13.00
2019,03,27,15,50,13.10
2019,03,27,15,51,13.10
2019,03,27,15,52,13.10
2019,03,27,15,53,13.10
2019,03,27,15,54,13.20
2019,03,27,15,55,13.20
2019,03,27,15,56,13.20
2019,03,27,15,57,13.20
2019,03,27,15,58,13.20
2019,03,27,15,59,13.30
2019,03,27,16,00,13.30
2019,03,27,16,01,13.20
2019,03,27,16,02,13.10
2019,03,27,16,03,13.10
2019,03,27,16,04,13.10
2019,03,27,16,05,13.10
2019,03,27,16,06,13.10
2019,03,27,16,07,13.10
2019,03,27,16,08,13.00
2019,03,27,16,09,13.10
2019,03,27,16,10,13.00
2019,03,27,16,11,13.00
2019,03,27,16,12,13.00
2019,03,27,16,13,13.10
2019,03,27,16,14,13.10
2019,03,27,16,15,13.20
2019,03,27,16,16,13.20
2019,03,27,16,17,13.10
2019,03,27,16,18,13.00
2019,03,27,16,19,12.90
2019,03,27,16,20,13.00
2019,03,27,16,21,13.00
2019,03,27,16,22,13.10
2019,03,27,16,23,13.10
2019,03,27,16,24,13.20
2019,03,27,16,25,13.20
2019,03,27,16,26,13.20
2019,03,27,16,27,13.30
2019,03,27,16,28,13.30
2019,03,27,16,29,13.30
2019,03,27,16,30,13.30
2019,03,27,16,31,13.30
2019,03,27,16,32,13.30
2019,03,27,16,33,13.20
2019,03,27,16,34,13.20
2019,03,27,16,35,13.10
2019,03,27,16,36,13.10
2019,03,27,16,37,13.10
2019,03,27,16,38,13.00
2019,03,27,16,39,13.10
2019,03,27,16,40,13.10
2019,03,27,16,41,13.10
2019,03,27,16,42,13.10
2019,03,27,16,43,13.10
2019,03,27,16,44,13.10
2019,03,27,16,45,13.10
2019,03,27,16,46,13.10
2019,03,27,16,47,13.10
2019,03,27,16,48,13.10
2019,03,27,16,49,13.10
2019,03,27,16,50,13.00
2019,03,27,16,51,13.00
2019,03,27,16,52,13.10
2019,03,27,16,53,13.10
2019,03,27,16,54,13.10
2019,03,27,16,55,13.20
2019,03,27,16,56,13.20
2019,03,27,16,57,13.20
2019,03,27,16,58,13.20
2019,03,27,16,59,13.20
2019,03,27,17,00,13.20
2019,03,27,17,01,13.30
2019,03,27,17,02,13.30
2019,03,27,17,03,13.30
2019,03,27,17,04,13.30
2019,03,27,17,05,13.30
2019,03,27,17,06,13.30
2019,03,27,17,07,13.30
2019,03,27,17,08,13.20
2019,03,27,17,09,13.20
2019,03,27,17,10,13.30
2019,03,27,17,11,13.30
2019,03,27,17,12,13.30
2019,03,27,17,13,13.30
2019,03,27,17,14,13.30
2019,03,27,17,15,13.30
2019,03,27,17,16,13.30
2019,03,27,17,17,13.30
2019,03,27,17,18,13.40
2019,03,27,17,19,13.40
2019,03,27,17,20,13.50
2019,03,27,17,21,13.50
2019,03,27,17,22,13.50
2019,03,27,17,23,13.60
2019,03,27,17,24,13.60
2019,03,27,17,25,13.70
2019,03,27,17,26,13.70
2019,03,27,17,27,13.80
2019,03,27,17,28,13.80
2019,03,27,17,29,13.80
2019,03,27,17,30,13.80
2019,03,27,17,31,13.80
2019,03,27,17,32,13.80
2019,03,27,17,33,13.70
2019,03,27,17,34,13.70
2019,03,27,17,35,13.60
2019,03,27,17,36,13.70
2019,03,27,17,37,13.70
2019,03,27,17,38,13.70
2019,03,27,17,39,13.60
2019,03,27,17,40,13.60
2019,03,27,17,41,13.60
2019,03,27,17,42,13.60
2019,03,27,17,43,13.70
2019,03,27,17,44,13.70
2019,03,27,17,45,13.70
2019,03,27,17,46,13.70
2019,03,27,17,47,13.70
2019,03,27,17,48,13.70
2019,03,27,17,49,13.70
2019,03,27,17,50,13.70
2019,03,27,17,51,13.70